www.pogodaiklimat.ru

ПОГОДА в Ильичёвске

  • Прогноз погоды в Ильичёвске
  • Монитор погоды в Ильичёвске
  • Климат города

АРХИВ ПОГОДЫ в Ильичёвске

Время (UTC), дата Ветер
(напр.,м/с)
 
Видим.   Явления Облачность Т
(С)
Тd
(С)
f
(%)
Тe
(С)
Тes
(С)
Комфортность P
(гПа)
Po
(гПа)
Тmin
(С)
Tmax
(С)
R
(мм)
S
(см)
21 16.07 С 4 10 км 10/0
[Ac und]
+24.0 +16.5 63 +27 +27 жарко 1008.8 1009.0
00 17.07 СЗ 4 10 км 6/0
[Ac und Ci fib]
+23.4 +16.9 67 +29 +29 душно 1008.5 1009.0
03 17.07 СЗ 2 20 км 10/10 700 м
[Sc]
+24.1 +15.7 59 +27 +27 жарко 1008.6 1009.0
06 17.07 С 5 10 км гроза, ливневой дождь 9/9 570 м
[Cb cap]
+20.7 +18.0 85 +25 +25 комфорт 1008.5 1009.0 +20.2 3
09 17.07 С 6 10 км гроза, ливневой дождь 9/9 630 м
[Cb cap]
+23.2 +16.7 67 +28 +29 душно 1008.2 1008.0
12 17.07 С 4 27 км {гроза, ливн. осадки} 8/8 700 м
[Sc]
+25.3 +20.2 73 +31 +33 очень
душно
1009.0 1009.0
18 17.07 С 3 20 км ясно +23.9 +16.9 65 +28 +28 душно 1008.5 1009.0 +28.6 1
21 17.07 С 3 10 км ясно +21.9 +18.1 79 +27 +27 душно 1008.5 1009.0
00 18.07 СЗ 2 10 км 6/6 660 м
[Sc]
+22.0 +17.5 76 +27 +27 душно 1008.0 1008.0
03 18.07 СЗ 4 18 км 8/8 660 м
[Sc]
+21.1 +16.7 76 +25 +25 комфорт 1008.8 1009.0
06 18.07 С 3 25 км 8/8 700 м
[Sc]
+24.0 +17.3 66 +28 +29 душно 1008.5 1009.0 +20.0
09 18.07 СВ 4 30 км 8/5 600 м
[Sc Ac und Cs]
+28.6 +14.4 42 +31 +35 жарко 1008.2 1008.0
12 18.07 СВ 2 10 км гроза, ливневой дождь 9/9 600 м
[Cb cap]
+25.4 +20.2 73 +31 +33 очень
душно
1008.2 1008.0
15 18.07 СВ 4 15 км в посл. час ливневой дождь {гроза} 8/8 570 м
[Cb cap]
+25.6 +20.1 72 +32 +32 очень
душно
1008.8 1009.0
18 18.07 В 8 10 км слабый ливневой дождь, в посл. час гроза 9/9 570 м
[Cb cap]
+21.5 +19.0 86 +26 +26 душно 1009.6 1010.0 +29.0 1
21 18.07 СЗ 3 10 км в посл. час ливневой дождь 8/8 700 м
[Sc]
+21.7 +17.7 78 +26 +26 душно 1009.5 1010.0
00 19.07 С 1 10 км {гроза, ливн. осадки} 8/8 720 м
[Sc]
+21.8 +19.3 86 +27 +27 душно 1009.7 1010.0
03 19.07 С 1 18 км 8/8 660 м
[Sc]
+21.4 +15.1 67 +25 +25 комфорт 1011.0 1011.0
06 19.07 СЗ 3 18 км 8/8 660 м
[Sc]
+24.1 +17.5 67 +28 +29 душно 1009.2 1009.0 +21.2 0.4
09 19.07 С 3 20 км 8/8 660 м
[Sc]
+26.1 +20.5 71 +32 +35 очень
душно
1010.9 1011.0
12 19.07 С 5 25 км 6/6 630 м
[Sc]
+29.9 +21.9 62 +38 +41 очень
душно
1010.1 1010.0
15 19.07 С 4 18 км 8/0
[As trans]
+31.0 +16.8 43 +35 +36 очень
душно
1009.0 1009.0
18 19.07 СВ 3 15 км гроза без осадков 9/8 570 м
[Cb cap As op]
+26.1 +18.1 61 +31 +31 очень
душно
1009.8 1010.0 +31.2
21 19.07 С 2 10 км гроза без осадков 8/8 570 м
[Cb cap]
+23.8 +18.3 71 +28 +28 душно 1010.4 1010.0
00 20.07 СЗ 3 10 км {гроза} 8/8 570 м
[Cb cap]
+21.5 +18.0 80 +26 +26 душно 1010.3 1010.0
06 20.07 С 4 21 км 8/8 600 м
[Sc]
+22.4 +18.3 78 +28 +29 душно 1011.4 1011.0 +21.3
09 20.07 С 3 26 км 6/3 600 м
[Cu med, cong Ac und]
+26.9 +19.5 64 +33 +40 очень
душно
1011.5 1012.0
12 20.07 СВ 3 30 км 6/5 600 м
[Cu med, cong Ci fib]
+29.6 +17.5 48 +34 +39 очень
душно
1010.2 1010.0
15 20.07 С 3 30 км 5/5 600 м
[Cu med, cong]
+31.4 +15.2 38 +34 +35 душно 1009.5 1010.0
18 20.07 В 2 19 км 3/3 600 м
[Sc diur, vesp Ac lent]
+23.9 +20.0 79 +29 +29 душно 1010.9 1011.0 +32.6
21 20.07 штиль 0 10 км ясно +23.0 +18.9 78 +29 +29 очень
душно
1011.5 1012.0
00 21.07 СВ 1 10 км ясно +21.3 +18.7 85 +26 +26 душно 1011.0 1011.0
03 21.07 СЗ 3 11 км ясно +19.5 +17.5 88 +22 +22 комфорт 1010.7 1011.0
06 21.07 штиль 0 15 км ясно +24.8 +18.9 70 +30 +40 душно 1010.6 1011.0 +19.4
09 21.07 Ю 4 22 км 3/0 600 м
[As op]
+26.5 +18.7 62 +31 +40 душно 1010.4 1010.0
12 21.07 Ю 5 30 км 3/0 600 м
[As op]
+26.5 +20.4 69 +33 +39 очень
душно
1009.2 1009.0
15 21.07 Ю 4 27 км 3/3 600 м
[Cu med, cong]
+26.7 +20.3 68 +33 +35 очень
душно
1008.2 1008.0
18 21.07 Ю 3 20 км ясно +25.3 +19.1 69 +30 +30 душно 1008.6 1009.0 +27.1
21 21.07 штиль 0 20 км ясно +24.3 +20.8 81 +30 +30 очень
душно
1008.4 1008.0
00 22.07 СЗ 2 10 км ясно +22.2 +20.4 90 +29 +29 очень
душно
1008.2 1008.0
03 22.07 СЗ 2 15 км ясно +21.5 +18.7 84 +26 +26 душно 1008.6 1009.0
06 22.07 СВ 4 25 км ясно +25.5 +20.2 73 +31 +36 очень
душно
1009.6 1010.0 +21.3
09 22.07 В 3 30 км 5/0
[Ac und Ci fib]
+27.7 +21.6 69 +35 +46 очень
душно
1010.1 1010.0
12 22.07 ЮВ 2 30 км ясно +29.0 +21.1 62 +36 +51 опасность
солнечного
удара
1010.0 1010.0
15 22.07 С 1 25 км 4/0
[Ac und]
+27.0 +21.0 70 +34 +37 очень
душно
1009.5 1010.0
18 22.07 штиль 0 20 км 8/6 570 м
[Cb cap Ac und]
+25.7 +16.5 57 +29 +29 душно 1010.0 1010.0 +29.3
21 22.07 СВ 1 20 км 8/8 630 м
[Sc]
+25.0 +19.7 72 +30 +30 душно 1009.9 1010.0
00 23.07 В 3 10 км 8/0
[Ci fib]
+24.3 +20.8 81 +30 +30 очень
душно
1009.2 1009.0
03 23.07 В 3 13 км 9/9 630 м
[Sc]
+24.2 +20.4 79 +30 +30 очень
душно
1009.4 1009.0
06 23.07 В 4 15 км 8/8 630 м
[Sc]
+26.0 +20.5 72 +32 +33 очень
душно
1009.6 1010.0 +24.1
09 23.07 СВ 4 18 км 8/8 660 м
[Sc]
+27.8 +21.9 70 +36 +38 очень
душно
1009.3 1009.0
12 23.07 ЮВ 4 25 км 6/6 630 м
[Sc]
+29.7 +23.6 70 +41 +44 опасность
перегрева
1008.5 1009.0
15 23.07 ЮВ 2 25 км 8/5 600 м
[Sc Ac und Cs]
+27.1 +23.6 81 +37 +38 очень
душно
1008.4 1008.0
18 23.07 штиль 0 20 км 8/0
[Cc]
+24.3 +22.2 88 +32 +32 очень
душно
1008.3 1008.0 +30.4
21 23.07 штиль 0 20 км ясно +23.7 +22.0 90 +31 +31 очень
душно
1008.6 1009.0
00 24.07 СВ 3 10 км ясно +23.5 +20.4 83 +29 +29 душно 1007.9 1008.0

 

Обсудить погоду в Ильичёвске на МЕТЕОФОРУМЕ

 

Местоположение метеостанции Ильичевск (Одесская область, Украина): широта 46.40 долгота 30.70 высота над уровнем моря 52 м.

В архиве по умолчанию представлена погода в Ильичёвске за последнюю неделю. Архивные данные за месяц целиком и за предыдущие месяцы, начиная с января 2011 года, Вы можете получить, выбрав интересующий диапазон дат из раскрывающегося списка и нажав кнопку "Ввод!".

Внимание! Время в таблицах - всемирное. Для получения местного времени необходимо прибавить поправку, которая в Ильичёвске равна 2 ч.

Ветер - указаны скорость ветра в м/с - средняя за 10 мин, порывы в срок и между сроками (в фигурных скобках) и направление, откуда дует ветер: С - северный, СВ - северо-восточный, В - восточный, ЮВ - юго-восточный, Ю - южный, ЮЗ - юго-западный, З - западный, СЗ - северо-западный.
Видимость - горизонтальная дальность видимости в метрах или километрах. При видимости от 1 до 10 км при отсутствии осадков обычно наблюдается дымка, при ухудшении видимости до 1 км и менее - туман. В сухую погоду видимость может ухудшаться дымом, пылью или мглою.
Явления - указаны атсосферные явления, наблюдавшиеся в срок или в последний час перед сроком; фигурными скобками обозначены явления, наблюдавшиеся между сроками (за 1-3 часа до срока); квадратными скобками обозначены град или гололедные отложения с указанием их диаметра в мм.
Облачность - указаны через наклонную черту общая и нижняя облачность в баллах и высота нижней границы облаков в метрах; квадратными скобками обозначены формы облаков: Ci - перистые, Cs - перисто-слоистые, Cc - перисто-кучевые, Ac - высококучевые, As - высокослоистые, Sc - слоисто-кучевые, Ns - слоисто-дождевые, Cu - кучевые, Cb - кучево-дождевые. Подробнее классификацию облаков см. в Атласе облаков (PDF).
T - Температура воздуха - температура, измеренная на высоте 2 м над землей.
Td - Температура точки росы - температура, при понижении до которой содержащийся в воздухе водяной пар достигнет насыщения.
f - Относительная влажность воздуха - влажноcть воздуха, измеренная на высоте 2 м над землей.
Te - Эффективная температура - температура, которую ощущает одетый по сезону человек в тени. Характеристика душности погоды. При расчете учитывается влияние влажности воздуха и скорости ветра на теплоощущения человека.
Tes - Эффективная температура на солнце - температура, которую ощущает человек, с поправкой на солнечный нагрев. Характеристика знойности погоды. Зависит от высоты солнца над горизонтом, облачности и скорости ветра. Ночью, в пасмурную погоду, а также при ветре 12 м/с и более поправка равна нулю.
P - Атмосферное давление - приведенное к уровню моря атмосферное давление.
Po - Атмосферное давление - измеренное на уровне метеостанции атмосферное давление.
Tmin - Минимальная температура - минимум температуры воздуха на высоте 2 м над землей.
Tmax - Максимальная температура - максимум температуры воздуха на высоте 2 м над землей.
R - Количество осадков - Количество выпавших осадков, мм.
S - Снежный покров - Высота снежного покрова, см.